When you browse on this site, cookies collect data to enhance your experience and personalize the content and advertising you see.
Visit our Privacy Policy to learn more. By continuing to use the site, you agree to this use of cookies and data.
  • In Czech Republic
  • List of Countries
  • For 7 days
  • Water Temperature
  • Satellite Maps
  • Weather Map
  • Weather Widgets
  • user-avatar
    Login

    Hourly Weather Eldoret

    Today, 18 June, Tuesday

    Time Temperature Precipitation Wind Pressure Humidity
    00:00 +14°C° 0.1 mm 1 mps 598 mmHg 93%
    01:00 +14°C° 0.1 mm 1 mps 597 mmHg 94%
    02:00 +12°C° 0.1 mm 0 mps 597 mmHg 94%
    03:00 +12°C° 0 mm 0 mps 597 mmHg 94%
    04:00 +12°C° 0 mm 0 mps 597 mmHg 94%
    05:00 +12°C° 0 mm 0 mps 597 mmHg 95%
    06:00 +14°C° 0 mm 0 mps 598 mmHg 91%
    07:00 +16°C° 0 mm 1 mps 599 mmHg 88%
    08:00 +19°C° 0 mm 1 mps 600 mmHg 85%
    09:00 +20°C° 0.1 mm 1 mps 600 mmHg 76%
    10:00 +22°C° 0.1 mm 1 mps 601 mmHg 68%
    11:00 +23°C° 0.1 mm 2 mps 601 mmHg 60%
    12:00 +23°C° 0.5 mm 2 mps 601 mmHg 64%
    13:00 +23°C° 0.5 mm 2 mps 600 mmHg 68%
    14:00 +21°C° 0.5 mm 2 mps 599 mmHg 72%
    15:00 +20°C° 0.8 mm 2 mps 599 mmHg 78%
    16:00 +20°C° 0.8 mm 1 mps 598 mmHg 85%
    17:00 +19°C° 0.8 mm 1 mps 598 mmHg 91%
    18:00 +16°C° 0.2 mm 1 mps 598 mmHg 92%
    19:00 +15°C° 0.2 mm 1 mps 598 mmHg 93%
    20:00 +13°C° 0.2 mm 0 mps 598 mmHg 94%
    21:00 +13°C° 0 mm 0 mps 598 mmHg 94%
    22:00 +14°C° 0 mm 1 mps 598 mmHg 94%
    23:00 +14°C° 0 mm 1 mps 598 mmHg 94%

    Tomorrow, 19 June, Wednesday

    Time Temperature Precipitation Wind Pressure Humidity
    00:00 +13°C° 0 mm 1 mps 597 mmHg 94%
    01:00 +13°C° 0 mm 1 mps 597 mmHg 94%
    02:00 +13°C° 0 mm 1 mps 597 mmHg 93%
    03:00 +13°C° 0 mm 1 mps 597 mmHg 94%
    04:00 +13°C° 0 mm 1 mps 597 mmHg 94%
    05:00 +12°C° 0 mm 1 mps 596 mmHg 94%
    06:00 +14°C° 0 mm 1 mps 598 mmHg 90%
    07:00 +16°C° 0 mm 1 mps 599 mmHg 86%
    08:00 +17°C° 0 mm 0 mps 600 mmHg 82%
    09:00 +21°C° 0.1 mm 1 mps 600 mmHg 73%
    10:00 +22°C° 0.1 mm 1 mps 601 mmHg 65%
    11:00 +24°C° 0.1 mm 2 mps 601 mmHg 57%
    12:00 +23°C° 0.2 mm 2 mps 600 mmHg 59%
    13:00 +23°C° 0.2 mm 2 mps 600 mmHg 61%
    14:00 +23°C° 0.2 mm 2 mps 599 mmHg 63%
    15:00 +22°C° 0.5 mm 1 mps 599 mmHg 72%
    16:00 +20°C° 0.5 mm 1 mps 598 mmHg 81%
    17:00 +19°C° 0.5 mm 1 mps 597 mmHg 89%
    18:00 +18°C° 0.1 mm 1 mps 597 mmHg 91%
    19:00 +15°C° 0.1 mm 1 mps 597 mmHg 93%
    20:00 +14°C° 0.1 mm 1 mps 597 mmHg 95%
    21:00 +14°C° 0 mm 1 mps 597 mmHg 95%
    22:00 +14°C° 0 mm 1 mps 597 mmHg 94%
    23:00 +13°C° 0 mm 1 mps 597 mmHg 94%

    Day after tomorrow, 20 June, Thursday

    Time Temperature Precipitation Wind Pressure Humidity
    00:00 +13°C° 0 mm 1 mps 597 mmHg 94%
    01:00 +13°C° 0 mm 1 mps 596 mmHg 94%
    02:00 +13°C° 0 mm 1 mps 596 mmHg 93%
    03:00 +13°C° 0 mm 1 mps 596 mmHg 93%
    04:00 +13°C° 0 mm 1 mps 596 mmHg 93%
    05:00 +12°C° 0 mm 1 mps 596 mmHg 93%
    06:00 +14°C° 0 mm 1 mps 597 mmHg 88%
    07:00 +15°C° 0 mm 0 mps 598 mmHg 83%
    08:00 +17°C° 0 mm 0 mps 599 mmHg 79%
    09:00 +21°C° 0 mm 1 mps 600 mmHg 70%
    10:00 +22°C° 0 mm 1 mps 600 mmHg 62%
    11:00 +24°C° 0 mm 1 mps 601 mmHg 53%
    12:00 +24°C° 0.2 mm 2 mps 600 mmHg 57%
    13:00 +23°C° 0.2 mm 2 mps 599 mmHg 61%
    14:00 +23°C° 0.2 mm 2 mps 598 mmHg 65%
    15:00 +20°C° 0.8 mm 2 mps 598 mmHg 74%
    16:00 +20°C° 0.8 mm 1 mps 597 mmHg 83%
    17:00 +19°C° 0.8 mm 1 mps 597 mmHg 92%
    18:00 +18°C° 0.4 mm 1 mps 597 mmHg 93%
    19:00 +16°C° 0.4 mm 1 mps 597 mmHg 94%
    20:00 +14°C° 0.4 mm 0 mps 597 mmHg 95%
    21:00 +13°C° 0.3 mm 0 mps 597 mmHg 95%
    22:00 +13°C° 0.3 mm 0 mps 597 mmHg 95%
    23:00 +13°C° 0.3 mm 0 mps 597 mmHg 95%

    21 June, Friday

    Time Temperature Precipitation Wind Pressure Humidity
    00:00 +14°C° 0 mm 1 mps 596 mmHg 94%
    01:00 +13°C° 0 mm 1 mps 596 mmHg 94%
    02:00 +13°C° 0 mm 1 mps 595 mmHg 94%
    03:00 +13°C° 0 mm 1 mps 596 mmHg 93%
    04:00 +13°C° 0 mm 1 mps 596 mmHg 93%
    05:00 +13°C° 0 mm 1 mps 596 mmHg 92%
    06:00 +15°C° 0 mm 1 mps 597 mmHg 88%
    07:00 +18°C° 0 mm 1 mps 598 mmHg 84%
    08:00 +19°C° 0 mm 1 mps 599 mmHg 80%
    09:00 +21°C° 0.1 mm 1 mps 600 mmHg 73%
    10:00 +21°C° 0.1 mm 2 mps 600 mmHg 65%
    11:00 +23°C° 0.1 mm 2 mps 600 mmHg 58%
    12:00 +23°C° 0.6 mm 2 mps 599 mmHg 65%
    13:00 +21°C° 0.6 mm 2 mps 598 mmHg 72%
    14:00 +20°C° 0.6 mm 2 mps 597 mmHg 79%
    15:00 +19°C° 1 mm 2 mps 597 mmHg 84%
    16:00 +19°C° 1 mm 1 mps 597 mmHg 89%
    17:00 +19°C° 1 mm 1 mps 597 mmHg 93%
    18:00 +18°C° 0.5 mm 1 mps 597 mmHg 94%
    19:00 +16°C° 0.5 mm 1 mps 597 mmHg 95%
    20:00 +15°C° 0.5 mm 1 mps 597 mmHg 95%
    21:00 +14°C° 0 mm 1 mps 597 mmHg 95%
    22:00 +14°C° 0 mm 1 mps 597 mmHg 94%
    23:00 +14°C° 0 mm 1 mps 597 mmHg 94%

    22 June, Saturday

    Time Temperature Precipitation Wind Pressure Humidity
    00:00 +14°C° 0 mm 1 mps 596 mmHg 93%
    01:00 +14°C° 0 mm 1 mps 596 mmHg 92%
    02:00 +14°C° 0 mm 1 mps 596 mmHg 91%
    03:00 +13°C° 0 mm 1 mps 596 mmHg 91%
    04:00 +13°C° 0 mm 1 mps 595 mmHg 90%
    05:00 +13°C° 0 mm 1 mps 595 mmHg 90%
    06:00 +15°C° 0 mm 1 mps 597 mmHg 84%
    07:00 +16°C° 0 mm 0 mps 598 mmHg 78%
    08:00 +18°C° 0 mm 0 mps 599 mmHg 73%
    09:00 +21°C° 0 mm 1 mps 599 mmHg 68%
    10:00 +21°C° 0 mm 2 mps 599 mmHg 64%
    11:00 +22°C° 0 mm 3 mps 599 mmHg 59%
    12:00 +21°C° 0.6 mm 2 mps 598 mmHg 66%
    13:00 +21°C° 0.6 mm 2 mps 598 mmHg 72%
    14:00 +20°C° 0.6 mm 2 mps 597 mmHg 78%
    15:00 +19°C° 0.6 mm 2 mps 597 mmHg 83%
    16:00 +20°C° 0.6 mm 1 mps 597 mmHg 87%
    17:00 +19°C° 0.6 mm 1 mps 596 mmHg 92%
    18:00 +18°C° 0.3 mm 1 mps 596 mmHg 93%
    19:00 +15°C° 0.3 mm 1 mps 597 mmHg 95%
    20:00 +14°C° 0.3 mm 1 mps 597 mmHg 96%
    21:00 +14°C° 0.2 mm 1 mps 597 mmHg 95%
    22:00 +14°C° 0.2 mm 1 mps 597 mmHg 94%
    23:00 +14°C° 0.2 mm 1 mps 597 mmHg 94%

    23 June, Sunday

    Time Temperature Precipitation Wind Pressure Humidity
    00:00 +14°C° 0 mm 1 mps 596 mmHg 93%
    01:00 +14°C° 0 mm 1 mps 596 mmHg 92%
    02:00 +14°C° 0 mm 1 mps 596 mmHg 91%
    03:00 +14°C° 0 mm 1 mps 596 mmHg 91%
    04:00 +13°C° 0 mm 1 mps 595 mmHg 91%
    05:00 +13°C° 0 mm 1 mps 595 mmHg 90%
    06:00 +15°C° 0 mm 1 mps 597 mmHg 84%
    07:00 +16°C° 0 mm 0 mps 598 mmHg 78%
    08:00 +18°C° 0 mm 0 mps 599 mmHg 72%
    09:00 +21°C° 0.1 mm 1 mps 599 mmHg 68%
    10:00 +21°C° 0.1 mm 2 mps 599 mmHg 64%
    11:00 +22°C° 0.1 mm 3 mps 599 mmHg 60%
    12:00 +21°C° 0.6 mm 2 mps 599 mmHg 67%
    13:00 +20°C° 0.6 mm 2 mps 598 mmHg 73%
    14:00 +20°C° 0.6 mm 2 mps 597 mmHg 80%
    15:00 +19°C° 0.5 mm 2 mps 597 mmHg 84%
    16:00 +18°C° 0.5 mm 2 mps 597 mmHg 87%
    17:00 +18°C° 0.5 mm 1 mps 597 mmHg 91%
    18:00 +16°C° 0.2 mm 1 mps 597 mmHg 93%
    19:00 +15°C° 0.2 mm 1 mps 597 mmHg 95%
    20:00 +13°C° 0.2 mm 1 mps 597 mmHg 97%
    21:00 +13°C° 0 mm 1 mps 597 mmHg 96%
    22:00 +13°C° 0 mm 1 mps 596 mmHg 96%
    23:00 +13°C° 0 mm 1 mps 596 mmHg 96%
    Show more